User: anonymous   Login
Location: Caltech
(34.1382°N, 118.1253°W)
Time: 14:23:22
(UTC-08:00)
Language:

JAS-1B - Orbit

View from above orbital plane
View from above orbital plane
View from above satellite
View from above satellite

Ground track
Ground track

The orbit data is extracted from the following two-line orbital elements,

1 20480U 90013C   15028.79812677 -.00000034  00000-0 -27938-5 0  9623
2 20480 099.0744 314.8010 0540149 202.8736 175.6331 12.83401385170073
Epoch (UTC): 28 January 2015 19:09:18
Eccentricity: 0.0540149
inclination: 99.0744°
perigee height: 911 km
apogee height: 1744 km
right ascension of ascending node: 314.8010°
argument of perigee: 202.8736°
revolutions per day: 12.83401385
mean anomaly at epoch: 175.6331°
orbit number at epoch: 17007

The dashed part of the orbit path shows where the satellite is in the earth's shadow,  

DLR